Regional Weather Roundup
Issued by NWS

Home | Current Version | Previous Version | Text Only | Print | Product List | Glossary Off
Versions: 1 2 3 4 5 6 7 8 9 10 11 12 13 14 15 16 17 18 19 20 21 22 23 24 25 26 27 28 29 30 31 32 33 34 35 36 37 38 39 40 41 42 43 44 45 46 47 48 49 50

000
ASUS45 KSLC 271510
RWRUT

UTAH REGIONAL WEATHER ROUNDUP
NATIONAL WEATHER SERVICE SALT LAKE CITY UT
900 AM MDT WED JUL 27 2016

UTZ001>011-023>025-271600-

NORTHERN UTAH

CITY           SKY/WX    TMP DP  RH WIND       PRES   REMARKS
BRIGHAM CITY     N/A     73  38  28 CALM      30.14S
HILL AFB       SUNNY     73  33  22 E18       30.17R
LOGAN          SUNNY     68  39  34 N8        30.17R
OGDEN          SUNNY     74  34  23 S13       30.14R
PROVO AIRPORT  SUNNY     73  37  27 VRB3      30.17R
SALT LAKE CITY SUNNY     82  39  21 SE5       30.12R
VERNAL         SUNNY     72  43  35 S3        30.23R
WENDOVER       SUNNY     79  36  21 CALM      30.15S
HEBER CITY     SUNNY     61  39  44 CALM      30.27R

$$

UTZ012>022-026-027-271600-

SOUTHERN/CENTRAL UTAH

CITY           SKY/WX    TMP DP  RH WIND       PRES   REMARKS
BLANDING       SUNNY     78  46  32 CALM      30.34S
BRYCE CANYON   SUNNY     70  42  36 NE3       30.41R
CEDAR CITY     SUNNY     74  47  38 W3        30.22R
DELTA          SUNNY     75  30  19 SE5       30.17R
MILFORD        SUNNY     77  39  25 CALM      30.18R
MOAB/CYNLANDS  SUNNY     82  41  23 E6        30.14R
PRICE          SUNNY     74  36  25 SE7       30.26R
ST GEORGE      SUNNY     84  45  24 S3        30.04R

$$

REGIONAL REPORTS     COLORADO/ARIZONA

CITY           SKY/WX    TMP DP  RH WIND       PRES   REMARKS
CRAIG, CO      SUNNY     69  41  36 NE9       30.30S
GRAND JUNCTION SUNNY     75  44  33 SE7       30.21R
RIFLE          SUNNY     69  42  37 NE5       30.28S
MONTROSE       SUNNY     72  44  36 CALM      30.29S
CORTEZ         SUNNY     74  47  38 CALM      30.28S
PAGE, AZ       SUNNY     82  43  25 CALM      30.13R
GRAND CANYON   SUNNY     78  48  34 CALM      30.33R
KINGMAN        SUNNY     92  52  25 CALM      30.05R
FLAGSTAFF      SUNNY     72  54  53 CALM      30.36R

$$

REGIONAL REPORTS    NEVADA/IDAHO/WYOMING

CITY           SKY/WX    TMP DP  RH WIND       PRES   REMARKS
LAS VEGAS, NV  MOSUNNY   96  42  15 CALM      29.88R HX  92
ELY            SUNNY     65  26  23 S7        30.31R
ELKO           SUNNY     68  29  23 CALM      30.22R
POCATELLO, ID  SUNNY     65  43  44 SW6       30.18R
BURLEY         SUNNY     67  49  52 CALM      30.15R
EVANSTON, WY   SUNNY     68  27  21 SW9       30.34S
ROCK SPRINGS   SUNNY     65  32  29 N3        30.32R
KEMMERER         N/A     64  32  29 N7        30.35S

$$



USA.gov is the U.S. government's official web portal to all federal, state and local government web resources and services.